Location: PACMO
(41.3967°N, 90.3760°W)
Time: 00:58:01
(UTC-05:00)

NOAA 19 - Visible Passes

Search period start: 28 June 2016 00:00
Search period end: 08 July 2016 00:00
Orbit: 842 x 862 km, 99.0° (Epoch: 27 June)

Date Brightness Start Highest point End Pass type
(mag) Time Alt. Az. Time Alt. Az. Time Alt. Az.
28 Jun 5.3 04:03:09 10° NNE 04:08:41 80° ESE 04:14:02 11° SSW visible
29 Jun 5.5 03:51:49 10° NNE 03:57:17 64° ESE 04:02:29 11° S visible
30 Jun 5.9 03:40:32 10° NNE 03:45:53 50° E 03:50:55 11° S visible
01 Jul 6.3 03:29:17 10° NNE 03:34:26 40° E 03:39:22 11° SSE visible
02 Jul 6.6 03:18:08 10° NE 03:22:59 31° E 03:27:47 10° SSE visible
03 Jul 7.0 03:07:02 10° NE 03:11:31 25° E 03:15:55 10° SSE visible
03 Jul 5.8 04:47:11 10° N 04:52:21 44° WNW 04:57:29 10° SW visible
04 Jul 7.3 02:56:05 10° NE 03:00:01 20° E 03:03:54 10° SE visible
04 Jul 5.5 04:35:41 10° N 04:41:02 55° WNW 04:46:19 10° SSW visible
05 Jul 7.5 02:45:19 10° NE 02:48:29 15° E 02:51:38 10° SE visible
05 Jul 5.3 04:24:14 10° N 04:29:41 69° WNW 04:35:05 10° SSW visible
06 Jul 7.6 02:35:01 10° ENE 02:36:57 12° E 02:38:53 10° ESE visible
06 Jul 5.2 04:12:48 10° NNE 04:18:19 86° WNW 04:23:35 11° SSW visible
07 Jul 5.3 04:01:26 10° NNE 04:06:56 76° ESE 04:12:01 12° S visible
